Location: Monrovia
(34.7865°N, 86.7139°W)
Time: 22:00:27
(UTC+00:00)

MSX - Pass Details

Date: 14 July 2020
Orbit: 894 x 906 km, 98.8° (Epoch: 08 August)

Event Time Altitude Azimuth Distance (km) Brightness Sun altitude
Rises 08:54:24 0° 17° (NNE) 3,514 8.0 -19.1°
Reaches altitude 10° 08:56:51 10° 22° (NNE) 2,571 7.2 -18.7°
Maximum altitude 09:02:30 59° 101° (E) 1,030 4.3 -17.9°
Enters shadow 09:07:33 13° 179° (S) 2,345 5.6 -17.1°
